Tracking 26492 objects as of 8-Dec-2022
HD Live streaming from Space Station
objects crossing your sky now

STARLINK-5201

Track STARLINK-5201 now!
10-day predictions
STARLINK-5201 is classified as:


NORAD ID: 54076
Int'l Code: 2022-136AB
Perigee: 545.6 km
Apogee: 547.8 km
Inclination: 53.2 °
Period: 95.4 minutes
Semi major axis: 6917 km
RCS: Unknown
Launch date: October 20, 2022
Source: United States (US)
Launch site: AIR FORCE EASTERN TEST RANGE (AFETR)
aabbcc
Your satellite tracking list
Your tracking list is empty




NASA's NSSDC Master Catalog

Two Line Element Set (TLE):
1 54076U 22136AB  22342.33334491 -.00009430  00000-0 -57420-3 0  9998
2 54076  53.2133 273.9431 0001582  14.6150 195.6595 15.08899402  8085
Source of the keplerian elements: AFSPC